QPF
0.00 0.00 0.00 0.00 0.00 0.00 0.00 0.00 0.00 0.00 0.00 0.00 0.00 0.00 0.00 0.00 0.00 0.00 0.00 0.00 0.00 0.00 0.00 0.00 0.00 0.00 0.00 0.00 0.00 0.00 0.00 0.00 0.00 0.00 0.00 0.00 0.00 0.00 0.00 0.00 0.00 0.00 0.00 0.00 0.00 0.00 0.00 0.00 0.00 0.00 0.00 0.00 0.00 0.00 0.00 0.00 0.00 0.00 0.00 0.00 0.00 0.00 0.00 0.00 0.00 0.00 0.00 0.00 0.00
0.00 0.00 0.00 0.00 0.00 0.00 0.00 0.00 0.00 0.00 0.00 0.00 0.00 0.00 0.00 0.00 0.00 0.00 0.00 0.00 0.00 0.00 0.00 0.00 0.00 0.00 0.00 0.00 0.00 0.00 0.00 0.00 0.00 0.00 0.00 0.00 0.00 0.00 0.00 0.00 0.00 0.00 0.00 0.00 0.00 0.00 0.00 0.00 0.00 0.00 0.00 0.00 0.00 0.00 0.00 0.00 0.00 0.00 0.00 0.00 0.00 0.00 0.00 0.00 0.00 0.00 0.00 0.00 0.00
0.00 0.00 0.00 0.00 0.00 0.00 0.00 0.00 0.00 0.00 0.00 0.00 0.00 0.00 0.00 0.00 0.00 0.00 0.00 0.00 0.00 0.00 0.00 0.00 0.00 0.00 0.00 0.00 0.00 0.00 0.00 0.00 0.00 0.00 0.00 0.00 0.00 0.00 0.00 0.00 0.00 0.00 0.00 0.00 0.00 0.00 0.00 0.00 0.00 0.00 0.00 0.00 0.00 0.00 0.00 0.00 0.00 0.00 0.00 0.00 0.00 0.00 0.00 0.00 0.00 0.00 0.00 0.00 0.00
0.00 0.00 0.00 0.00 0.00 0.00 0.00 0.00 0.00 0.00 0.00 0.00 0.00 0.00 0.00 0.00 0.00 0.00 0.00 0.00 0.00 0.00 0.00 0.00 0.00 0.00 0.00 0.00 0.00 0.00 0.00 0.00 0.00 0.00 0.00 0.00 0.00 0.00 0.00 0.00 0.00 0.00 0.00 0.00 0.00 0.00 0.00 0.00 0.00 0.00 0.00 0.00 0.00 0.00 0.00 0.00 0.00 0.00 0.00 0.00 0.00 0.00 0.00 0.00 0.00 0.00 0.00 0.00 0.00
0.00 0.00 0.00 0.00 0.00 0.00 0.00 0.00 0.00 0.00 0.00 0.00 0.00 0.00 0.00 0.00 0.00 0.00 0.00 0.00 0.00 0.00 0.00 0.00 0.00 0.00 0.00 0.00 0.00 0.00 0.00 0.00 0.00 0.00 0.00 0.00 0.00 0.00 0.00 0.00 0.00 0.00 0.00 0.00 0.00 0.00 0.00 0.00 0.00 0.00 0.00 0.00 0.00 0.00 0.00 0.00 0.00 0.00 0.00 0.00 0.00 0.00 0.00 0.00 0.00 0.00 0.00 0.00 0.00
0.00 0.00 0.00 0.00 0.00 0.00 0.00 0.00 0.00 0.00 0.00 0.00 0.00 0.00 0.00 0.00 0.00 0.00 0.00 0.00 0.00 0.00 0.00 0.00 0.00 0.00 0.00 0.00 0.00 0.00 0.00 0.00 0.00 0.00 0.00 0.00 0.00 0.00 0.00 0.00 0.00 0.00 0.00 0.00 0.00 0.00 0.00 0.00 0.00 0.00 0.00 0.00 0.00 0.00 0.00 0.00 0.00 0.00 0.00 0.00 0.00 0.00 0.00 0.00 0.00 0.00 0.00 0.00 0.00
0.00 0.00 0.00 0.00 0.00 0.00 0.00 0.00 0.00 0.00 0.00 0.00 0.00 0.00 0.00 0.00 0.00 0.00 0.00 0.00 0.00 0.00 0.00 0.00 0.00 0.00 0.00 0.00 0.00 0.00 0.00 0.00 0.00 0.00 0.00 0.00 0.00 0.00 0.00 0.00 0.00 0.00 0.00 0.00 0.00 0.00 0.00 0.00 0.00 0.00 0.00 0.00 0.00 0.00 0.00 0.00 0.00 0.00 0.00 0.00 0.00 0.00 0.00 0.00 0.00 0.00 0.00 0.00 0.00
0.00 0.00 0.00 0.00 0.00 0.00 0.00 0.00 0.00 0.00 0.00 0.00 0.00 0.00 0.00 0.00 0.00 0.00 0.00 0.00 0.00 0.00 0.00 0.00 0.00 0.00 0.00 0.00 0.00 0.00 0.00 0.00 0.00 0.00 0.00 0.00 0.00 0.00 0.00 0.00 0.00 0.00 0.00 0.00 0.00 0.00 0.00 0.00 0.00 0.00 0.00 0.00 0.00 0.00 0.00 0.00 0.00 0.00 0.00 0.00 0.00 0.00 0.00 0.00 0.00 0.00 0.00 0.00 0.00
0.00 0.00 0.00 0.00 0.00 0.00 0.00 0.00 0.00 0.00 0.00 0.00 0.00 0.00 0.00 0.00 0.00 0.00 0.00 0.00 0.00 0.00 0.00 0.00 0.00 0.00 0.00 0.00 0.00 0.00 0.00 0.00 0.00 0.00 0.00 0.00 0.00 0.00 0.00 0.00 0.00 0.00 0.00 0.00 0.00 0.00 0.00 0.00 0.00 0.00 0.00 0.00 0.00 0.00 0.00 0.00 0.00 0.00 0.00 0.00 0.00 0.00 0.00 0.00 0.00 0.00 0.00 0.00 0.00
0.00 0.00 0.00 0.00 0.00 0.00 0.00 0.00 0.00 0.00 0.00 0.00 0.00 0.00 0.00 0.00 0.00 0.00 0.00 0.00 0.00 0.00 0.00 0.00 0.00 0.00 0.00 0.00 0.00 0.00 0.00 0.00 0.00 0.00 0.00 0.00 0.00 0.00 0.00 0.00 0.00 0.00 0.00 0.00 0.00 0.00 0.00 0.00 0.00 0.00 0.00 0.00 0.00 0.00 0.00 0.00 0.00 0.00 0.00 0.00 0.00 0.00 0.00 0.00 0.00 0.00 0.00 0.00 0.00
0.00 0.00 0.00 0.00 0.00 0.00 0.00 0.00 0.00 0.00 0.00 0.00 0.00 0.00 0.00 0.00 0.00 0.00 0.00 0.00 0.00 0.00 0.00 0.00 0.00 0.00 0.00 0.00 0.00 0.00 0.00 0.00 0.00 0.00 0.00 0.00 0.00 0.00 0.00 0.00 0.00 0.00 0.00 0.00 0.00 0.00 0.00 0.00 0.00 0.00 0.00 0.00 0.00 0.00 0.00 0.00 0.00 0.00 0.00 0.00 0.00 0.00 0.00 0.00 0.00 0.00 0.00 0.00 0.00
0.00 0.00 0.00 0.00 0.00 0.00 0.00 0.00 0.00 0.00 0.00 0.00 0.00 0.00 0.00 0.00 0.00 0.00 0.00 0.00 0.00 0.00 0.00 0.00 0.00 0.00 0.00 0.00 0.00 0.00 0.00 0.00 0.00 0.00 0.00 0.00 0.00 0.00 0.00 0.00 0.00 0.00 0.00 0.00 0.00 0.00 0.00 0.00 0.00 0.00 0.00 0.00 0.00 0.00 0.00 0.00 0.00 0.00 0.00 0.00 0.00 0.00 0.00 0.00 0.00 0.00 0.00 0.00 0.00
0.00 0.00 0.00 0.00 0.00 0.00 0.00 0.00 0.00 0.00 0.00 0.00 0.00 0.00 0.00 0.00 0.00 0.00 0.00 0.00 0.00 0.00 0.00 0.00 0.00 0.00 0.00 0.00 0.00 0.00 0.00 0.00 0.00 0.00 0.00 0.00 0.00 0.00 0.00 0.00 0.00 0.00 0.00 0.00 0.00 0.00 0.00 0.00 0.00 0.00 0.00 0.00 0.00 0.00 0.00 0.00 0.00 0.00 0.00 0.00 0.00 0.00 0.00 0.00 0.00 0.00 0.00 0.00 0.00
0.00 0.00 0.00 0.00 0.00 0.00 0.00 0.00 0.00 0.00 0.00 0.00 0.00 0.00 0.00 0.00 0.00 0.00 0.00 0.00 0.00 0.00 0.00 0.00 0.00 0.00 0.00 0.00 0.00 0.00 0.00 0.00 0.00 0.00 0.00 0.00 0.00 0.00 0.00 0.00 0.00 0.00 0.00 0.00 0.00 0.00 0.00 0.00 0.00 0.00 0.00 0.00 0.00 0.00 0.00 0.00 0.00 0.00 0.00 0.00 0.00 0.00 0.00 0.00 0.00 0.00 0.00 0.00 0.00
0.01 0.01 0.00 0.00 0.00 0.00 0.00 0.00 0.00 0.00 0.00 0.00 0.00 0.00 0.00 0.00 0.00 0.00 0.00 0.00 0.00 0.00 0.00 0.00 0.00 0.00 0.00 0.00 0.00 0.00 0.00 0.00 0.00 0.00 0.00 0.00 0.00 0.00 0.00 0.00 0.00 0.00 0.00 0.00 0.00 0.00 0.00 0.00 0.00 0.00 0.00 0.00 0.00 0.00 0.00 0.00 0.00 0.00 0.00 0.00 0.00 0.00 0.00 0.00 0.00 0.00 0.00 0.00 0.00
0.01 0.01 0.01 0.01 0.00 0.00 0.00 0.00 0.00 0.00 0.00 0.00 0.00 0.00 0.00 0.00 0.00 0.00 0.00 0.00 0.00 0.00 0.00 0.00 0.00 0.00 0.00 0.00 0.00 0.00 0.00 0.00 0.00 0.00 0.00 0.00 0.00 0.00 0.00 0.00 0.00 0.00 0.00 0.00 0.00 0.00 0.00 0.00 0.00 0.00 0.00 0.00 0.00 0.00 0.00 0.00 0.00 0.00 0.00 0.00 0.00 0.00 0.00 0.00 0.00 0.00 0.00 0.00 0.00
0.01 0.01 0.01 0.00 0.00 0.00 0.00 0.00 0.00 0.00 0.00 0.00 0.00 0.00 0.00 0.00 0.00 0.00 0.00 0.00 0.00 0.00 0.00 0.00 0.00 0.00 0.00 0.00 0.00 0.00 0.00 0.00 0.00 0.00 0.00 0.00 0.00 0.00 0.00 0.00 0.00 0.00 0.00 0.00 0.00 0.00 0.00 0.00 0.00 0.00 0.00 0.00 0.00 0.00 0.00 0.00 0.00 0.00 0.00 0.00 0.00 0.00 0.00 0.00 0.00 0.00 0.00 0.00 0.00
0.00 0.00 0.00 0.00 0.00 0.00 0.00 0.00 0.00 0.00 0.00 0.00 0.00 0.00 0.00 0.00 0.00 0.00 0.00 0.00 0.00 0.00 0.00 0.00 0.00 0.00 0.00 0.00 0.00 0.00 0.00 0.00 0.00 0.00 0.00 0.00 0.00 0.00 0.00 0.00 0.00 0.00 0.00 0.00 0.00 0.00 0.00 0.00 0.00 0.00 0.00 0.00 0.00 0.00 0.00 0.00 0.00 0.00 0.00 0.00 0.00 0.00 0.00 0.00 0.00 0.00 0.00 0.00 0.00
0.01 0.01 0.01 0.01 0.01 0.00 0.00 0.00 0.00 0.00 0.00 0.00 0.00 0.00 0.00 0.00 0.00 0.00 0.00 0.00 0.00 0.00 0.00 0.00 0.00 0.00 0.00 0.00 0.00 0.00 0.00 0.00 0.00 0.00 0.00 0.00 0.00 0.00 0.00 0.00 0.00 0.00 0.00 0.00 0.00 0.00 0.00 0.00 0.00 0.00 0.00 0.00 0.00 0.00 0.00 0.00 0.00 0.00 0.00 0.00 0.00 0.00 0.00 0.00 0.00 0.00 0.00 0.00 0.00
0.01 0.01 0.01 0.01 0.00 0.00 0.00 0.00 0.00 0.00 0.00 0.00 0.00 0.00 0.00 0.00 0.00 0.00 0.00 0.00 0.00 0.00 0.00 0.00 0.00 0.00 0.00 0.00 0.00 0.00 0.00 0.00 0.00 0.00 0.00 0.00 0.00 0.00 0.00 0.00 0.00 0.00 0.00 0.00 0.00 0.00 0.00 0.00 0.00 0.00 0.00 0.00 0.00 0.00 0.00 0.00 0.00 0.00 0.00 0.00 0.00 0.00 0.00 0.00 0.00 0.00 0.00 0.00 0.00
0.00 0.00 0.00 0.00 0.00 0.00 0.00 0.00 0.00 0.00 0.00 0.00 0.00 0.00 0.00 0.00 0.00 0.00 0.00 0.00 0.00 0.00 0.00 0.00 0.00 0.00 0.00 0.00 0.00 0.00 0.00 0.00 0.00 0.00 0.00 0.00 0.00 0.00 0.00 0.00 0.00 0.00 0.00 0.00 0.00 0.00 0.00 0.00 0.00 0.00 0.00 0.00 0.00 0.00 0.00 0.00 0.00 0.00 0.00 0.00 0.00 0.00 0.00 0.00 0.00 0.00 0.00 0.00 0.00
0.00 0.00 0.00 0.00 0.00 0.00 0.00 0.00 0.00 0.00 0.00 0.00 0.00 0.00 0.00 0.00 0.00 0.00 0.00 0.00 0.00 0.00 0.00 0.00 0.00 0.00 0.00 0.00 0.00 0.00 0.00 0.00 0.00 0.00 0.00 0.00 0.00 0.00 0.00 0.00 0.00 0.00 0.00 0.00 0.00 0.00 0.00 0.00 0.00 0.00 0.00 0.00 0.00 0.00 0.00 0.00 0.00 0.00 0.00 0.00 0.00 0.00 0.00 0.00 0.00 0.00 0.00 0.00 0.00
0.00 0.00 0.00 0.00 0.00 0.00 0.00 0.00 0.00 0.00 0.00 0.00 0.00 0.00 0.00 0.00 0.00 0.00 0.00 0.00 0.00 0.00 0.00 0.00 0.00 0.00 0.00 0.00 0.00 0.00 0.00 0.00 0.00 0.00 0.00 0.00 0.00 0.00 0.00 0.00 0.00 0.00 0.00 0.00 0.00 0.00 0.00 0.00 0.00 0.00 0.00 0.00 0.00 0.00 0.00 0.00 0.00 0.00 0.00 0.00 0.00 0.00 0.00 0.00 0.00 0.00 0.00 0.00 0.00
0.00 0.00 0.00 0.00 0.00 0.00 0.00 0.00 0.00 0.00 0.00 0.00 0.00 0.00 0.00 0.00 0.00 0.00 0.00 0.00 0.00 0.00 0.00 0.00 0.00 0.00 0.00 0.00 0.00 0.00 0.00 0.00 0.00 0.00 0.00 0.00 0.00 0.00 0.00 0.00 0.00 0.00 0.00 0.00 0.00 0.00 0.00 0.00 0.00 0.00 0.00 0.00 0.00 0.00 0.00 0.00 0.00 0.00 0.00 0.00 0.00 0.00 0.00 0.00 0.00 0.00 0.00 0.00 0.00
0.00 0.00 0.00 0.00 0.00 0.00 0.00 0.00 0.00 0.00 0.00 0.00 0.00 0.00 0.00 0.00 0.00 0.00 0.00 0.00 0.00 0.00 0.00 0.00 0.00 0.00 0.00 0.00 0.00 0.00 0.00 0.00 0.00 0.00 0.00 0.00 0.00 0.00 0.00 0.00 0.00 0.00 0.00 0.00 0.00 0.00 0.00 0.00 0.00 0.00 0.00 0.00 0.00 0.00 0.00 0.00 0.00 0.00 0.00 0.00 0.00 0.00 0.00 0.00 0.00 0.00 0.00 0.00 0.00
0.00 0.00 0.00 0.00 0.00 0.00 0.00 0.00 0.00 0.00 0.00 0.00 0.00 0.00 0.00 0.00 0.00 0.00 0.00 0.00 0.00 0.00 0.00 0.00 0.00 0.00 0.00 0.00 0.00 0.00 0.00 0.00 0.00 0.00 0.00 0.00 0.00 0.00 0.00 0.00 0.00 0.00 0.00 0.00 0.00 0.00 0.00 0.00 0.00 0.00 0.00 0.00 0.00 0.00 0.00 0.00 0.00 0.00 0.00 0.00 0.01 0.01 0.01 0.00 0.00 0.00 0.00 0.00 0.00
0.00 0.00 0.00 0.00 0.00 0.00 0.00 0.00 0.00 0.00 0.00 0.00 0.00 0.00 0.00 0.00 0.00 0.00 0.00 0.00 0.00 0.00 0.00 0.00 0.00 0.00 0.00 0.00 0.00 0.00 0.00 0.00 0.00 0.00 0.00 0.00 0.00 0.00 0.00 0.00 0.00 0.00 0.00 0.00 0.00 0.00 0.00 0.00 0.00 0.00 0.00 0.00 0.00 0.00 0.00 0.00 0.01 0.01 0.01 0.01 0.02 0.01 0.01 0.00 0.00 0.00 0.00 0.00 0.00
0.00 0.00 0.00 0.00 0.00 0.00 0.00 0.00 0.00 0.00 0.00 0.00 0.00 0.00 0.00 0.00 0.00 0.00 0.00 0.00 0.00 0.00 0.00 0.00 0.00 0.00 0.00 0.00 0.00 0.00 0.00 0.00 0.00 0.00 0.00 0.00 0.00 0.00 0.00 0.00 0.00 0.00 0.00 0.00 0.00 0.00 0.00 0.00 0.00 0.00 0.00 0.00 0.00 0.00 0.01 0.01 0.02 0.02 0.02 0.02 0.01 0.01 0.00 0.00 0.00 0.00 0.00 0.00 0.00
0.00 0.00 0.00 0.00 0.00 0.00 0.00 0.00 0.00 0.00 0.00 0.00 0.00 0.00 0.00 0.00 0.00 0.00 0.00 0.00 0.00 0.00 0.00 0.00 0.00 0.00 0.00 0.00 0.00 0.00 0.00 0.00 0.00 0.00 0.00 0.00 0.00 0.00 0.00 0.00 0.00 0.00 0.00 0.00 0.00 0.00 0.00 0.00 0.00 0.00 0.00 0.00 0.00 0.01 0.02 0.03 0.03 0.03 0.02 0.02 0.01 0.00 0.00 0.00 0.00 0.00 0.00 0.00 0.00
0.00 0.00 0.00 0.00 0.00 0.00 0.00 0.00 0.00 0.00 0.00 0.00 0.00 0.00 0.00 0.00 0.00 0.00 0.00 0.00 0.00 0.00 0.00 0.00 0.00 0.00 0.00 0.00 0.00 0.00 0.00 0.00 0.00 0.00 0.00 0.00 0.00 0.00 0.00 0.00 0.00 0.00 0.00 0.00 0.00 0.00 0.00 0.00 0.00 0.00 0.00 0.00 0.01 0.02 0.03 0.03 0.03 0.02 0.01 0.00 0.00 0.00 0.00 0.00 0.00 0.00 0.00 0.00 0.00
0.00 0.00 0.00 0.00 0.00 0.00 0.00 0.00 0.00 0.00 0.00 0.00 0.00 0.00 0.00 0.00 0.00 0.00 0.00 0.00 0.00 0.00 0.00 0.00 0.00 0.00 0.00 0.00 0.00 0.00 0.00 0.00 0.00 0.00 0.00 0.00 0.00 0.00 0.00 0.00 0.00 0.00 0.00 0.00 0.00 0.00 0.00 0.00 0.00 0.00 0.00 0.01 0.02 0.02 0.02 0.01 0.01 0.00 0.00 0.01 0.00 0.00 0.00 0.00 0.00 0.00 0.00 0.00 0.00
0.00 0.00 0.00 0.00 0.00 0.00 0.00 0.00 0.00 0.00 0.00 0.00 0.00 0.00 0.00 0.00 0.00 0.00 0.00 0.00 0.00 0.00 0.00 0.00 0.00 0.00 0.00 0.00 0.00 0.00 0.00 0.00 0.00 0.00 0.00 0.00 0.00 0.00 0.00 0.00 0.00 0.00 0.00 0.00 0.00 0.00 0.00 0.00 0.00 0.00 0.00 0.01 0.01 0.00 0.00 0.00 0.00 0.01 0.01 0.02 0.01 0.00 0.00 0.00 0.00 0.00 0.00 0.00 0.00
0.00 0.00 0.00 0.00 0.00 0.00 0.00 0.00 0.00 0.00 0.00 0.00 0.00 0.00 0.00 0.00 0.00 0.00 0.00 0.00 0.00 0.00 0.00 0.00 0.00 0.00 0.00 0.00 0.00 0.00 0.00 0.00 0.00 0.00 0.00 0.00 0.00 0.00 0.00 0.00 0.00 0.00 0.00 0.00 0.00 0.00 0.00 0.00 0.00 0.00 0.00 0.00 0.00 0.00 0.01 0.01 0.02 0.03 0.03 0.01 0.01 0.00 0.00 0.00 0.00 0.00 0.00 0.00 0.00
0.00 0.00 0.00 0.00 0.00 0.00 0.00 0.00 0.00 0.00 0.00 0.00 0.00 0.00 0.00 0.00 0.00 0.00 0.00 0.00 0.00 0.00 0.00 0.00 0.00 0.00 0.00 0.00 0.00 0.00 0.00 0.00 0.00 0.00 0.00 0.00 0.00 0.00 0.00 0.00 0.00 0.00 0.00 0.00 0.00 0.00 0.00 0.00 0.00 0.00 0.00 0.00 0.01 0.02 0.03 0.03 0.04 0.03 0.02 0.00 0.00 0.00 0.00 0.00 0.00 0.00 0.00 0.00 0.00
0.00 0.00 0.00 0.00 0.00 0.00 0.00 0.00 0.00 0.00 0.00 0.00 0.00 0.00 0.00 0.00 0.00 0.00 0.00 0.00 0.00 0.00 0.00 0.00 0.00 0.00 0.00 0.00 0.00 0.00 0.00 0.00 0.00 0.00 0.00 0.00 0.00 0.00 0.00 0.00 0.00 0.00 0.00 0.00 0.00 0.00 0.00 0.00 0.00 0.00 0.01 0.01 0.02 0.02 0.03 0.03 0.03 0.02 0.01 0.00 0.00 0.00 0.00 0.00 0.00 0.00 0.00 0.00 0.00
0.00 0.00 0.00 0.00 0.00 0.00 0.00 0.00 0.00 0.00 0.00 0.00 0.00 0.00 0.00 0.00 0.00 0.00 0.00 0.00 0.00 0.00 0.00 0.00 0.00 0.00 0.00 0.00 0.00 0.00 0.00 0.00 0.00 0.00 0.00 0.00 0.00 0.00 0.00 0.00 0.00 0.00 0.00 0.00 0.00 0.00 0.00 0.00 0.00 0.00 0.01 0.02 0.02 0.02 0.02 0.02 0.01 0.00 0.00 0.00 0.00 0.00 0.00 0.00 0.00 0.00 0.00 0.00 0.00
0.00 0.00 0.00 0.00 0.00 0.00 0.00 0.00 0.00 0.00 0.00 0.00 0.00 0.00 0.00 0.00 0.00 0.00 0.00 0.00 0.00 0.00 0.00 0.00 0.00 0.00 0.00 0.00 0.00 0.00 0.00 0.00 0.00 0.00 0.00 0.00 0.00 0.00 0.00 0.00 0.00 0.00 0.00 0.00 0.00 0.00 0.00 0.00 0.00 0.01 0.01 0.01 0.01 0.01 0.01 0.01 0.00 0.00 0.00 0.00 0.00 0.00 0.00 0.00 0.00 0.00 0.00 0.00 0.00
0.00 0.00 0.00 0.00 0.00 0.00 0.00 0.00 0.00 0.00 0.00 0.00 0.00 0.00 0.00 0.00 0.00 0.00 0.00 0.00 0.00 0.00 0.00 0.00 0.00 0.00 0.00 0.00 0.00 0.00 0.00 0.00 0.00 0.00 0.00 0.00 0.00 0.00 0.00 0.00 0.00 0.00 0.00 0.00 0.00 0.00 0.00 0.00 0.00 0.00 0.00 0.00 0.00 0.00 0.00 0.00 0.00 0.00 0.00 0.00 0.01 0.01 0.01 0.01 0.01 0.00 0.00 0.00 0.00
0.00 0.00 0.00 0.00 0.00 0.00 0.00 0.00 0.00 0.00 0.00 0.00 0.00 0.00 0.00 0.00 0.00 0.00 0.00 0.00 0.00 0.00 0.00 0.00 0.00 0.00 0.00 0.00 0.00 0.00 0.00 0.00 0.00 0.00 0.00 0.00 0.00 0.00 0.00 0.00 0.00 0.00 0.00 0.00 0.00 0.00 0.00 0.00 0.00 0.00 0.00 0.00 0.00 0.00 0.00 0.02 0.02 0.02 0.02 0.02 0.03 0.03 0.03 0.02 0.01 0.00 0.00 0.00 0.00
0.00 0.00 0.00 0.00 0.00 0.00 0.00 0.00 0.00 0.00 0.00 0.00 0.00 0.00 0.00 0.00 0.00 0.00 0.00 0.00 0.00 0.00 0.00 0.00 0.00 0.00 0.00 0.00 0.00 0.00 0.00 0.00 0.00 0.00 0.00 0.00 0.00 0.00 0.00 0.00 0.00 0.00 0.00 0.00 0.00 0.00 0.00 0.00 0.00 0.00 0.00 0.00 0.00 0.01 0.03 0.05 0.05 0.04 0.04 0.05 0.05 0.05 0.04 0.02 0.01 0.00 0.00 0.00 0.00
0.00 0.00 0.00 0.00 0.00 0.00 0.00 0.00 0.00 0.00 0.00 0.00 0.00 0.00 0.00 0.00 0.00 0.00 0.00 0.00 0.00 0.00 0.00 0.00 0.00 0.00 0.00 0.00 0.00 0.00 0.00 0.00 0.00 0.00 0.00 0.00 0.00 0.00 0.00 0.00 0.00 0.00 0.00 0.00 0.00 0.00 0.00 0.00 0.00 0.00 0.01 0.01 0.02 0.04 0.06 0.07 0.06 0.05 0.05 0.05 0.05 0.04 0.03 0.01 0.00 0.00 0.00 0.00 0.00
MSLP
1021.54 1021.66 1021.82 1021.98 1022.22 1022.42 1022.66 1022.86 1022.98 1023.14 1023.34 1023.58 1023.86 1024.14 1024.34 1024.58 1024.82 1024.98 1025.14 1025.22 1025.34 1025.50 1025.70 1025.86 1025.98 1026.18 1026.34 1026.46 1026.54 1026.62 1026.74 1026.86 1026.98 1027.02 1027.10 1027.18 1027.30 1027.42 1027.50 1027.58 1027.70 1027.82 1027.98 1028.10 1028.18 1028.26 1028.38 1028.42 1028.58 1028.66 1028.78 1028.86 1028.98 1029.10 1029.14 1029.18 1029.22 1029.26 1029.26 1029.30 1029.34 1029.42 1029.46 1029.46 1029.54 1029.58 1029.58 1029.58 1029.58
1021.58 1021.70 1021.86 1022.10 1022.30 1022.54 1022.74 1022.98 1023.14 1023.30 1023.38 1023.46 1023.70 1023.98 1024.22 1024.46 1024.70 1024.98 1025.14 1025.22 1025.30 1025.42 1025.58 1025.82 1025.98 1026.14 1026.34 1026.46 1026.50 1026.58 1026.70 1026.90 1026.98 1027.10 1027.14 1027.26 1027.34 1027.42 1027.50 1027.58 1027.70 1027.86 1027.98 1028.10 1028.18 1028.30 1028.42 1028.50 1028.62 1028.74 1028.86 1028.94 1029.06 1029.18 1029.26 1029.26 1029.26 1029.30 1029.30 1029.42 1029.42 1029.46 1029.50 1029.50 1029.54 1029.58 1029.58 1029.62 1029.62
1021.70 1021.82 1021.98 1022.14 1022.34 1022.58 1022.82 1023.06 1023.26 1023.42 1023.54 1023.62 1023.74 1023.90 1024.14 1024.42 1024.62 1024.86 1025.10 1025.22 1025.30 1025.42 1025.58 1025.78 1025.98 1026.14 1026.26 1026.42 1026.54 1026.58 1026.70 1026.86 1027.02 1027.14 1027.26 1027.34 1027.42 1027.46 1027.54 1027.66 1027.74 1027.86 1027.94 1028.06 1028.18 1028.30 1028.42 1028.54 1028.62 1028.74 1028.86 1028.98 1029.10 1029.22 1029.30 1029.30 1029.30 1029.30 1029.38 1029.46 1029.46 1029.46 1029.50 1029.54 1029.54 1029.58 1029.58 1029.62 1029.62
1021.70 1021.86 1021.98 1022.18 1022.38 1022.54 1022.70 1022.94 1023.22 1023.42 1023.58 1023.74 1023.86 1023.98 1024.14 1024.38 1024.58 1024.86 1025.06 1025.26 1025.38 1025.46 1025.58 1025.74 1025.98 1026.10 1026.22 1026.42 1026.58 1026.70 1026.74 1026.86 1026.98 1027.14 1027.30 1027.42 1027.46 1027.54 1027.62 1027.70 1027.82 1027.90 1027.98 1028.06 1028.14 1028.26 1028.42 1028.50 1028.58 1028.70 1028.86 1028.98 1029.10 1029.18 1029.22 1029.22 1029.26 1029.30 1029.38 1029.46 1029.50 1029.54 1029.58 1029.58 1029.58 1029.58 1029.58 1029.62 1029.62
1021.82 1021.86 1021.98 1022.14 1022.26 1022.42 1022.62 1022.86 1023.14 1023.38 1023.62 1023.82 1023.98 1024.14 1024.26 1024.42 1024.62 1024.86 1025.14 1025.34 1025.42 1025.50 1025.58 1025.70 1025.86 1026.06 1026.22 1026.38 1026.58 1026.70 1026.86 1026.94 1027.02 1027.18 1027.34 1027.50 1027.58 1027.62 1027.70 1027.70 1027.86 1027.94 1027.98 1028.06 1028.14 1028.22 1028.30 1028.42 1028.50 1028.66 1028.82 1028.90 1028.98 1029.06 1029.14 1029.18 1029.22 1029.30 1029.34 1029.42 1029.46 1029.54 1029.58 1029.66 1029.66 1029.62 1029.62 1029.66 1029.66
1021.82 1021.90 1021.98 1022.14 1022.26 1022.42 1022.66 1022.86 1023.10 1023.34 1023.58 1023.78 1023.98 1024.18 1024.34 1024.54 1024.70 1024.94 1025.14 1025.34 1025.42 1025.58 1025.66 1025.74 1025.86 1026.06 1026.26 1026.42 1026.58 1026.74 1026.90 1027.10 1027.14 1027.26 1027.38 1027.58 1027.62 1027.70 1027.74 1027.86 1027.90 1027.98 1028.02 1028.10 1028.14 1028.14 1028.22 1028.34 1028.42 1028.58 1028.74 1028.86 1028.94 1029.02 1029.10 1029.14 1029.14 1029.26 1029.38 1029.46 1029.50 1029.58 1029.58 1029.70 1029.70 1029.70 1029.70 1029.74 1029.74
1021.70 1021.90 1022.06 1022.22 1022.30 1022.46 1022.70 1022.94 1023.14 1023.34 1023.58 1023.74 1023.94 1024.10 1024.30 1024.54 1024.70 1024.94 1025.14 1025.30 1025.50 1025.70 1025.82 1025.86 1025.98 1026.14 1026.30 1026.50 1026.62 1026.78 1026.94 1027.14 1027.22 1027.30 1027.38 1027.50 1027.62 1027.74 1027.82 1027.90 1027.90 1027.98 1028.06 1028.14 1028.14 1028.18 1028.22 1028.26 1028.42 1028.58 1028.70 1028.78 1028.86 1028.98 1029.10 1029.14 1029.10 1029.18 1029.34 1029.46 1029.50 1029.54 1029.62 1029.70 1029.70 1029.74 1029.78 1029.86 1029.82
1021.66 1021.86 1021.98 1022.14 1022.26 1022.42 1022.66 1022.86 1023.14 1023.34 1023.58 1023.70 1023.86 1023.98 1024.22 1024.42 1024.70 1024.90 1025.14 1025.34 1025.58 1025.70 1025.82 1025.90 1025.98 1026.14 1026.26 1026.42 1026.58 1026.74 1026.90 1027.06 1027.22 1027.30 1027.34 1027.42 1027.58 1027.70 1027.78 1027.86 1027.94 1027.98 1028.06 1028.10 1028.14 1028.22 1028.26 1028.30 1028.38 1028.54 1028.66 1028.70 1028.86 1028.94 1028.98 1029.06 1029.10 1029.18 1029.34 1029.46 1029.50 1029.58 1029.58 1029.70 1029.70 1029.74 1029.78 1029.86 1029.86
1021.70 1021.86 1021.98 1022.10 1022.22 1022.38 1022.54 1022.74 1022.98 1023.18 1023.42 1023.66 1023.78 1023.90 1024.06 1024.30 1024.58 1024.86 1025.14 1025.34 1025.50 1025.62 1025.74 1025.86 1025.98 1026.06 1026.14 1026.26 1026.42 1026.58 1026.74 1026.90 1027.06 1027.18 1027.30 1027.38 1027.54 1027.66 1027.74 1027.82 1027.90 1027.98 1028.06 1028.14 1028.14 1028.22 1028.30 1028.38 1028.46 1028.58 1028.62 1028.66 1028.74 1028.86 1028.94 1028.98 1029.10 1029.22 1029.34 1029.42 1029.50 1029.58 1029.62 1029.70 1029.70 1029.70 1029.74 1029.82 1029.86
1021.66 1021.86 1021.98 1022.14 1022.26 1022.34 1022.46 1022.66 1022.86 1023.06 1023.26 1023.50 1023.70 1023.86 1023.98 1024.18 1024.42 1024.70 1024.94 1025.14 1025.34 1025.58 1025.70 1025.82 1025.90 1026.02 1026.14 1026.18 1026.26 1026.38 1026.54 1026.70 1026.86 1027.06 1027.22 1027.30 1027.38 1027.50 1027.62 1027.74 1027.86 1027.98 1028.06 1028.10 1028.14 1028.18 1028.30 1028.42 1028.54 1028.62 1028.66 1028.70 1028.74 1028.82 1028.90 1028.94 1029.02 1029.18 1029.30 1029.42 1029.46 1029.54 1029.62 1029.66 1029.70 1029.70 1029.70 1029.74 1029.78
1021.46 1021.70 1021.86 1022.02 1022.18 1022.34 1022.46 1022.62 1022.86 1023.02 1023.18 1023.42 1023.62 1023.78 1023.86 1024.06 1024.26 1024.54 1024.74 1024.98 1025.26 1025.46 1025.58 1025.66 1025.78 1025.90 1025.98 1026.10 1026.10 1026.18 1026.30 1026.46 1026.62 1026.82 1026.98 1027.14 1027.26 1027.34 1027.42 1027.58 1027.66 1027.78 1027.90 1028.02 1028.10 1028.14 1028.26 1028.42 1028.58 1028.70 1028.70 1028.74 1028.78 1028.78 1028.86 1028.90 1028.98 1029.14 1029.30 1029.38 1029.42 1029.50 1029.58 1029.58 1029.66 1029.66 1029.66 1029.70 1029.70
1021.34 1021.58 1021.74 1021.90 1022.14 1022.26 1022.42 1022.58 1022.82 1022.98 1023.14 1023.34 1023.54 1023.66 1023.74 1023.86 1024.10 1024.38 1024.66 1024.94 1025.14 1025.30 1025.42 1025.54 1025.62 1025.70 1025.82 1025.90 1025.98 1026.02 1026.14 1026.26 1026.46 1026.62 1026.82 1026.98 1027.10 1027.18 1027.30 1027.38 1027.46 1027.58 1027.70 1027.86 1027.94 1028.06 1028.18 1028.38 1028.58 1028.70 1028.78 1028.82 1028.82 1028.82 1028.86 1028.86 1028.98 1029.10 1029.26 1029.34 1029.42 1029.42 1029.50 1029.54 1029.58 1029.58 1029.58 1029.58 1029.58
1021.26 1021.46 1021.70 1021.86 1022.06 1022.22 1022.38 1022.54 1022.70 1022.90 1023.10 1023.26 1023.42 1023.50 1023.58 1023.70 1023.94 1024.22 1024.54 1024.82 1024.98 1025.14 1025.30 1025.42 1025.46 1025.54 1025.62 1025.70 1025.82 1025.90 1026.02 1026.14 1026.34 1026.50 1026.66 1026.82 1026.90 1027.02 1027.14 1027.26 1027.30 1027.42 1027.50 1027.62 1027.74 1027.86 1028.06 1028.26 1028.46 1028.62 1028.74 1028.82 1028.82 1028.82 1028.78 1028.82 1028.86 1028.98 1029.14 1029.26 1029.30 1029.38 1029.42 1029.42 1029.42 1029.50 1029.54 1029.54 1029.54
1021.18 1021.42 1021.62 1021.86 1022.02 1022.14 1022.26 1022.42 1022.62 1022.78 1022.98 1023.14 1023.30 1023.38 1023.46 1023.62 1023.86 1024.10 1024.38 1024.58 1024.78 1024.94 1025.14 1025.30 1025.42 1025.42 1025.46 1025.54 1025.62 1025.74 1025.90 1026.02 1026.18 1026.34 1026.50 1026.62 1026.78 1026.90 1026.98 1027.06 1027.14 1027.18 1027.30 1027.42 1027.58 1027.70 1027.86 1028.10 1028.30 1028.42 1028.58 1028.70 1028.74 1028.70 1028.70 1028.70 1028.74 1028.82 1028.94 1029.06 1029.18 1029.26 1029.26 1029.26 1029.30 1029.38 1029.42 1029.42 1029.42
1021.14 1021.34 1021.54 1021.70 1021.94 1022.02 1022.14 1022.30 1022.50 1022.70 1022.86 1023.06 1023.22 1023.30 1023.42 1023.58 1023.82 1024.02 1024.22 1024.42 1024.58 1024.78 1024.98 1025.18 1025.34 1025.38 1025.38 1025.38 1025.46 1025.58 1025.74 1025.90 1026.10 1026.26 1026.42 1026.54 1026.66 1026.78 1026.86 1026.90 1026.98 1027.06 1027.14 1027.26 1027.42 1027.50 1027.66 1027.86 1028.02 1028.22 1028.38 1028.50 1028.58 1028.62 1028.62 1028.62 1028.62 1028.66 1028.74 1028.86 1028.94 1028.98 1029.02 1029.06 1029.14 1029.26 1029.30 1029.30 1029.30
1021.14 1021.30 1021.46 1021.62 1021.86 1021.98 1022.06 1022.22 1022.38 1022.58 1022.78 1022.98 1023.14 1023.30 1023.42 1023.58 1023.78 1023.94 1024.10 1024.26 1024.46 1024.70 1024.86 1024.98 1025.14 1025.30 1025.38 1025.38 1025.42 1025.46 1025.62 1025.82 1025.98 1026.14 1026.30 1026.42 1026.58 1026.66 1026.70 1026.78 1026.86 1026.94 1026.98 1027.14 1027.26 1027.34 1027.42 1027.54 1027.70 1027.94 1028.10 1028.22 1028.30 1028.42 1028.46 1028.46 1028.50 1028.54 1028.58 1028.58 1028.70 1028.74 1028.82 1028.86 1029.02 1029.14 1029.14 1029.14 1029.18
1020.98 1021.18 1021.34 1021.54 1021.70 1021.86 1021.98 1022.10 1022.26 1022.42 1022.66 1022.86 1023.06 1023.18 1023.30 1023.46 1023.70 1023.86 1023.98 1024.14 1024.34 1024.58 1024.70 1024.82 1024.94 1025.10 1025.30 1025.42 1025.42 1025.46 1025.58 1025.70 1025.86 1025.98 1026.14 1026.26 1026.42 1026.50 1026.58 1026.66 1026.70 1026.74 1026.82 1026.90 1027.02 1027.14 1027.26 1027.34 1027.50 1027.66 1027.78 1027.90 1028.02 1028.14 1028.22 1028.26 1028.30 1028.34 1028.38 1028.42 1028.46 1028.54 1028.58 1028.70 1028.82 1028.94 1029.02 1029.02 1029.02
1020.86 1021.02 1021.22 1021.42 1021.58 1021.70 1021.86 1021.98 1022.14 1022.30 1022.50 1022.70 1022.90 1023.06 1023.14 1023.30 1023.54 1023.70 1023.86 1023.98 1024.14 1024.30 1024.46 1024.62 1024.74 1024.86 1025.02 1025.18 1025.30 1025.38 1025.42 1025.58 1025.70 1025.82 1025.90 1025.98 1026.14 1026.26 1026.34 1026.42 1026.42 1026.50 1026.58 1026.66 1026.70 1026.86 1026.98 1027.14 1027.30 1027.42 1027.54 1027.62 1027.70 1027.82 1027.90 1027.98 1028.06 1028.14 1028.14 1028.22 1028.30 1028.38 1028.42 1028.58 1028.66 1028.78 1028.86 1028.90 1028.86
1020.66 1020.86 1021.06 1021.26 1021.38 1021.54 1021.70 1021.86 1021.98 1022.14 1022.30 1022.50 1022.70 1022.86 1022.98 1023.14 1023.34 1023.54 1023.70 1023.86 1023.98 1024.02 1024.14 1024.38 1024.54 1024.66 1024.78 1024.86 1025.02 1025.14 1025.22 1025.30 1025.42 1025.58 1025.66 1025.78 1025.86 1025.98 1026.10 1026.14 1026.22 1026.30 1026.34 1026.38 1026.42 1026.50 1026.62 1026.82 1026.98 1027.18 1027.34 1027.42 1027.46 1027.58 1027.66 1027.74 1027.86 1027.94 1027.98 1028.06 1028.14 1028.26 1028.38 1028.46 1028.58 1028.62 1028.70 1028.70 1028.66
1020.42 1020.58 1020.78 1020.98 1021.14 1021.30 1021.50 1021.70 1021.86 1021.98 1022.14 1022.30 1022.50 1022.70 1022.86 1023.02 1023.14 1023.30 1023.54 1023.70 1023.74 1023.82 1023.90 1024.02 1024.26 1024.46 1024.58 1024.66 1024.78 1024.90 1024.98 1025.06 1025.18 1025.30 1025.42 1025.58 1025.70 1025.78 1025.86 1025.90 1025.98 1026.10 1026.14 1026.14 1026.14 1026.26 1026.38 1026.54 1026.70 1026.90 1027.02 1027.14 1027.30 1027.38 1027.50 1027.58 1027.70 1027.78 1027.86 1027.98 1028.06 1028.18 1028.26 1028.34 1028.42 1028.50 1028.54 1028.54 1028.50
1020.10 1020.26 1020.46 1020.66 1020.86 1021.06 1021.26 1021.42 1021.58 1021.78 1021.98 1022.18 1022.38 1022.58 1022.70 1022.86 1022.98 1023.14 1023.22 1023.30 1023.46 1023.62 1023.70 1023.86 1023.98 1024.22 1024.38 1024.54 1024.66 1024.74 1024.82 1024.86 1024.98 1025.10 1025.18 1025.34 1025.46 1025.54 1025.58 1025.66 1025.78 1025.90 1025.98 1025.98 1025.98 1026.06 1026.14 1026.30 1026.46 1026.66 1026.78 1026.90 1027.06 1027.18 1027.30 1027.42 1027.58 1027.70 1027.82 1027.90 1027.98 1028.10 1028.14 1028.26 1028.34 1028.42 1028.42 1028.42 1028.42
1019.82 1019.98 1020.22 1020.42 1020.62 1020.86 1021.02 1021.26 1021.46 1021.66 1021.86 1022.06 1022.22 1022.38 1022.54 1022.70 1022.82 1022.86 1022.90 1023.02 1023.26 1023.46 1023.58 1023.70 1023.82 1023.98 1024.14 1024.26 1024.42 1024.50 1024.58 1024.70 1024.86 1024.90 1024.98 1025.14 1025.22 1025.30 1025.34 1025.42 1025.58 1025.70 1025.82 1025.86 1025.86 1025.90 1025.98 1026.14 1026.26 1026.42 1026.58 1026.70 1026.86 1026.94 1027.06 1027.22 1027.42 1027.58 1027.70 1027.86 1027.94 1028.02 1028.14 1028.22 1028.26 1028.30 1028.34 1028.30 1028.26
1019.58 1019.82 1020.02 1020.26 1020.42 1020.66 1020.90 1021.14 1021.38 1021.58 1021.78 1021.94 1022.10 1022.26 1022.42 1022.54 1022.62 1022.70 1022.82 1022.98 1023.14 1023.30 1023.42 1023.58 1023.62 1023.70 1023.86 1023.98 1024.06 1024.22 1024.42 1024.58 1024.70 1024.78 1024.86 1024.94 1025.02 1025.14 1025.22 1025.30 1025.46 1025.58 1025.62 1025.70 1025.70 1025.78 1025.86 1026.02 1026.14 1026.26 1026.38 1026.50 1026.66 1026.82 1026.94 1027.10 1027.30 1027.46 1027.62 1027.78 1027.86 1027.98 1028.06 1028.14 1028.18 1028.22 1028.22 1028.18 1028.14
1019.42 1019.70 1019.90 1020.10 1020.34 1020.58 1020.86 1021.06 1021.30 1021.50 1021.70 1021.86 1021.98 1022.14 1022.26 1022.38 1022.50 1022.62 1022.82 1022.98 1023.14 1023.26 1023.34 1023.42 1023.50 1023.58 1023.66 1023.78 1023.90 1024.06 1024.26 1024.42 1024.62 1024.70 1024.78 1024.86 1024.90 1025.02 1025.14 1025.22 1025.30 1025.34 1025.34 1025.38 1025.42 1025.54 1025.62 1025.78 1025.98 1026.10 1026.22 1026.34 1026.50 1026.66 1026.82 1026.94 1027.14 1027.30 1027.46 1027.62 1027.74 1027.86 1027.98 1028.02 1028.10 1028.14 1028.14 1028.10 1028.06
1019.30 1019.54 1019.78 1019.98 1020.26 1020.50 1020.74 1020.98 1021.22 1021.42 1021.58 1021.70 1021.86 1022.02 1022.18 1022.30 1022.46 1022.62 1022.78 1022.98 1023.10 1023.18 1023.30 1023.38 1023.42 1023.54 1023.70 1023.82 1023.94 1024.02 1024.14 1024.30 1024.46 1024.58 1024.66 1024.74 1024.82 1024.90 1024.98 1025.10 1025.14 1025.14 1025.14 1025.14 1025.14 1025.18 1025.26 1025.38 1025.58 1025.78 1025.98 1026.14 1026.34 1026.58 1026.70 1026.86 1027.02 1027.18 1027.34 1027.42 1027.62 1027.82 1027.94 1027.94 1027.98 1027.98 1027.94 1027.94 1027.86
1019.14 1019.42 1019.66 1019.86 1020.14 1020.42 1020.66 1020.86 1021.06 1021.26 1021.42 1021.58 1021.78 1021.94 1022.10 1022.26 1022.42 1022.58 1022.74 1022.90 1022.98 1023.10 1023.22 1023.34 1023.42 1023.58 1023.74 1023.86 1023.98 1024.14 1024.22 1024.30 1024.38 1024.46 1024.58 1024.62 1024.70 1024.82 1024.86 1024.86 1024.90 1024.90 1024.90 1024.90 1024.86 1024.94 1024.98 1025.06 1025.14 1025.38 1025.66 1025.94 1026.22 1026.46 1026.70 1026.86 1026.98 1027.10 1027.18 1027.30 1027.50 1027.70 1027.86 1027.86 1027.82 1027.78 1027.74 1027.70 1027.70
1019.06 1019.30 1019.54 1019.78 1020.06 1020.30 1020.54 1020.70 1020.94 1021.14 1021.30 1021.54 1021.74 1021.86 1021.98 1022.18 1022.38 1022.54 1022.70 1022.86 1022.94 1023.06 1023.18 1023.34 1023.42 1023.58 1023.70 1023.86 1024.06 1024.18 1024.26 1024.30 1024.30 1024.38 1024.42 1024.50 1024.58 1024.66 1024.70 1024.66 1024.66 1024.66 1024.62 1024.62 1024.62 1024.70 1024.78 1024.86 1024.94 1025.14 1025.46 1025.82 1026.10 1026.30 1026.50 1026.70 1026.86 1026.94 1026.98 1027.10 1027.34 1027.54 1027.66 1027.70 1027.62 1027.58 1027.58 1027.58 1027.58
1018.90 1019.14 1019.42 1019.70 1019.98 1020.18 1020.42 1020.62 1020.86 1021.06 1021.30 1021.46 1021.58 1021.74 1021.94 1022.14 1022.34 1022.50 1022.62 1022.78 1022.86 1023.02 1023.22 1023.38 1023.46 1023.58 1023.74 1023.94 1024.06 1024.10 1024.14 1024.18 1024.22 1024.26 1024.30 1024.38 1024.42 1024.42 1024.42 1024.42 1024.42 1024.38 1024.34 1024.30 1024.38 1024.46 1024.58 1024.66 1024.82 1025.02 1025.30 1025.62 1025.86 1026.06 1026.26 1026.42 1026.54 1026.58 1026.66 1026.82 1027.06 1027.26 1027.38 1027.38 1027.42 1027.42 1027.42 1027.46 1027.42
1018.78 1019.02 1019.34 1019.66 1019.86 1020.10 1020.30 1020.58 1020.78 1020.98 1021.14 1021.38 1021.54 1021.70 1021.90 1022.14 1022.26 1022.42 1022.58 1022.74 1022.90 1023.06 1023.22 1023.34 1023.42 1023.58 1023.78 1023.94 1023.98 1023.98 1023.98 1024.02 1024.06 1024.14 1024.18 1024.26 1024.30 1024.26 1024.26 1024.22 1024.18 1024.14 1024.06 1024.10 1024.14 1024.22 1024.34 1024.54 1024.70 1024.90 1025.14 1025.38 1025.58 1025.78 1025.90 1026.02 1026.14 1026.18 1026.26 1026.42 1026.62 1026.86 1026.98 1027.10 1027.14 1027.22 1027.30 1027.38 1027.38
1018.70 1018.98 1019.30 1019.54 1019.78 1020.02 1020.26 1020.46 1020.66 1020.86 1021.06 1021.30 1021.50 1021.70 1021.90 1022.14 1022.26 1022.38 1022.54 1022.70 1022.86 1022.98 1023.10 1023.26 1023.42 1023.58 1023.66 1023.66 1023.70 1023.74 1023.86 1023.86 1023.90 1023.98 1024.06 1024.14 1024.14 1024.14 1024.10 1023.98 1023.98 1023.94 1023.90 1023.86 1023.98 1024.06 1024.18 1024.34 1024.54 1024.70 1024.90 1025.06 1025.30 1025.42 1025.54 1025.58 1025.66 1025.78 1025.94 1026.10 1026.26 1026.46 1026.66 1026.82 1026.94 1027.06 1027.14 1027.18 1027.26
1018.66 1018.90 1019.14 1019.42 1019.74 1019.98 1020.22 1020.38 1020.58 1020.78 1021.02 1021.30 1021.50 1021.70 1021.86 1022.02 1022.18 1022.30 1022.46 1022.58 1022.74 1022.90 1023.06 1023.26 1023.34 1023.38 1023.38 1023.38 1023.50 1023.62 1023.70 1023.70 1023.78 1023.86 1023.90 1023.94 1023.94 1023.90 1023.86 1023.82 1023.78 1023.74 1023.70 1023.70 1023.82 1023.90 1024.02 1024.14 1024.30 1024.50 1024.62 1024.78 1024.98 1025.10 1025.18 1025.30 1025.42 1025.62 1025.86 1026.06 1026.18 1026.30 1026.42 1026.58 1026.74 1026.86 1026.94 1027.02 1027.14
1018.62 1018.86 1019.14 1019.42 1019.70 1019.94 1020.14 1020.42 1020.62 1020.86 1021.10 1021.30 1021.50 1021.70 1021.86 1021.98 1022.14 1022.26 1022.38 1022.54 1022.70 1022.94 1023.14 1023.18 1023.14 1023.10 1023.14 1023.30 1023.46 1023.58 1023.66 1023.66 1023.66 1023.66 1023.66 1023.70 1023.70 1023.66 1023.62 1023.62 1023.58 1023.54 1023.54 1023.54 1023.62 1023.70 1023.82 1023.94 1024.06 1024.22 1024.34 1024.50 1024.66 1024.78 1024.94 1025.10 1025.30 1025.54 1025.82 1025.98 1026.06 1026.14 1026.22 1026.34 1026.46 1026.58 1026.70 1026.82 1026.90
1018.58 1018.86 1019.14 1019.42 1019.70 1019.94 1020.18 1020.42 1020.66 1020.90 1021.14 1021.30 1021.50 1021.66 1021.78 1021.98 1022.14 1022.26 1022.42 1022.58 1022.70 1022.74 1022.78 1022.82 1022.86 1022.94 1023.10 1023.30 1023.42 1023.50 1023.54 1023.54 1023.50 1023.46 1023.46 1023.46 1023.42 1023.42 1023.42 1023.42 1023.38 1023.34 1023.30 1023.38 1023.42 1023.54 1023.62 1023.70 1023.82 1023.94 1024.10 1024.26 1024.38 1024.58 1024.82 1024.98 1025.22 1025.46 1025.70 1025.86 1025.90 1025.94 1025.98 1026.10 1026.18 1026.26 1026.42 1026.50 1026.58
1018.62 1018.90 1019.14 1019.42 1019.70 1019.98 1020.26 1020.54 1020.74 1020.98 1021.18 1021.38 1021.50 1021.66 1021.78 1021.98 1022.18 1022.38 1022.46 1022.58 1022.54 1022.46 1022.46 1022.58 1022.66 1022.74 1022.94 1023.14 1023.26 1023.30 1023.34 1023.34 1023.30 1023.30 1023.34 1023.30 1023.30 1023.34 1023.34 1023.30 1023.18 1023.10 1023.10 1023.18 1023.30 1023.34 1023.42 1023.50 1023.58 1023.70 1023.86 1024.10 1024.30 1024.58 1024.78 1024.94 1025.14 1025.42 1025.58 1025.70 1025.74 1025.78 1025.86 1025.98 1026.02 1026.10 1026.18 1026.26 1026.38
1018.62 1018.90 1019.18 1019.46 1019.78 1020.06 1020.34 1020.58 1020.82 1021.02 1021.22 1021.42 1021.58 1021.70 1021.86 1021.98 1022.10 1022.22 1022.30 1022.38 1022.38 1022.42 1022.46 1022.54 1022.58 1022.70 1022.90 1023.06 1023.14 1023.22 1023.22 1023.22 1023.26 1023.22 1023.18 1023.14 1023.18 1023.26 1023.26 1023.14 1022.98 1022.90 1022.94 1022.98 1023.06 1023.14 1023.18 1023.30 1023.38 1023.54 1023.74 1024.02 1024.34 1024.58 1024.70 1024.82 1025.06 1025.26 1025.42 1025.46 1025.58 1025.70 1025.74 1025.86 1025.94 1026.02 1026.06 1026.14 1026.22
1018.54 1018.86 1019.18 1019.54 1019.86 1020.14 1020.42 1020.66 1020.86 1021.02 1021.18 1021.38 1021.58 1021.70 1021.86 1021.90 1021.98 1022.10 1022.18 1022.26 1022.30 1022.38 1022.46 1022.50 1022.62 1022.86 1023.02 1023.14 1023.14 1023.14 1023.14 1023.14 1023.14 1023.06 1023.02 1023.02 1023.10 1023.14 1023.06 1022.98 1022.90 1022.82 1022.74 1022.82 1022.86 1022.86 1022.94 1023.02 1023.14 1023.42 1023.70 1023.98 1024.22 1024.38 1024.46 1024.58 1024.78 1024.98 1025.14 1025.30 1025.42 1025.54 1025.58 1025.74 1025.90 1025.98 1026.02 1026.06 1026.14
1018.42 1018.78 1019.14 1019.54 1019.86 1020.14 1020.38 1020.58 1020.70 1020.90 1021.10 1021.30 1021.42 1021.58 1021.66 1021.74 1021.90 1022.10 1022.18 1022.26 1022.30 1022.38 1022.42 1022.50 1022.70 1022.94 1023.06 1023.06 1023.06 1022.98 1022.98 1022.98 1022.98 1022.98 1022.90 1022.90 1022.98 1022.94 1022.86 1022.86 1022.74 1022.66 1022.58 1022.58 1022.62 1022.70 1022.74 1022.86 1023.02 1023.30 1023.58 1023.82 1023.98 1024.14 1024.26 1024.38 1024.58 1024.78 1024.98 1025.22 1025.30 1025.42 1025.54 1025.70 1025.86 1025.98 1025.98 1025.98 1025.98
1018.46 1018.74 1019.10 1019.42 1019.78 1020.06 1020.26 1020.42 1020.58 1020.78 1020.98 1021.18 1021.34 1021.42 1021.50 1021.58 1021.86 1022.06 1022.14 1022.22 1022.26 1022.30 1022.42 1022.58 1022.82 1022.94 1022.98 1022.94 1022.94 1022.90 1022.86 1022.86 1022.86 1022.86 1022.86 1022.82 1022.74 1022.74 1022.70 1022.62 1022.54 1022.42 1022.42 1022.42 1022.42 1022.50 1022.58 1022.70 1022.86 1023.10 1023.30 1023.50 1023.70 1023.86 1024.10 1024.30 1024.58 1024.82 1025.02 1025.18 1025.30 1025.42 1025.58 1025.70 1025.86 1025.94 1025.90 1025.86 1025.82
1018.46 1018.74 1019.06 1019.38 1019.70 1019.94 1020.14 1020.30 1020.50 1020.70 1020.90 1021.10 1021.26 1021.30 1021.38 1021.54 1021.74 1021.94 1022.06 1022.06 1022.10 1022.22 1022.46 1022.70 1022.86 1022.86 1022.86 1022.86 1022.86 1022.86 1022.82 1022.78 1022.74 1022.74 1022.74 1022.70 1022.58 1022.50 1022.50 1022.46 1022.34 1022.22 1022.14 1022.18 1022.22 1022.30 1022.42 1022.54 1022.70 1022.86 1022.98 1023.22 1023.50 1023.78 1024.02 1024.30 1024.66 1024.90 1025.10 1025.26 1025.34 1025.46 1025.58 1025.70 1025.82 1025.86 1025.82 1025.74 1025.58
1018.54 1018.78 1019.02 1019.30 1019.58 1019.78 1019.98 1020.26 1020.46 1020.70 1020.86 1020.98 1021.14 1021.18 1021.30 1021.46 1021.70 1021.86 1021.90 1021.94 1022.02 1022.22 1022.42 1022.66 1022.74 1022.74 1022.74 1022.82 1022.86 1022.86 1022.82 1022.70 1022.62 1022.58 1022.58 1022.46 1022.38 1022.26 1022.26 1022.26 1022.18 1022.06 1021.98 1021.98 1022.02 1022.10 1022.22 1022.34 1022.50 1022.70 1022.94 1023.26 1023.58 1023.86 1024.14 1024.42 1024.70 1024.98 1025.14 1025.26 1025.34 1025.42 1025.54 1025.62 1025.70 1025.70 1025.66 1025.62 1025.50
1018.58 1018.82 1019.02 1019.26 1019.46 1019.70 1019.98 1020.26 1020.50 1020.70 1020.86 1020.94 1020.98 1021.14 1021.30 1021.46 1021.66 1021.78 1021.86 1021.98 1022.14 1022.30 1022.50 1022.62 1022.70 1022.70 1022.78 1022.86 1022.86 1022.86 1022.82 1022.70 1022.54 1022.42 1022.34 1022.26 1022.18 1022.14 1022.10 1022.06 1021.98 1021.90 1021.82 1021.78 1021.82 1021.86 1021.98 1022.14 1022.34 1022.62 1022.98 1023.38 1023.70 1023.94 1024.14 1024.42 1024.70 1024.98 1025.10 1025.14 1025.18 1025.22 1025.30 1025.38 1025.42 1025.42 1025.42 1025.42 1025.42
Thickness
5578 5576 5574 5571 5569 5566 5563 5560 5557 5554 5552 5549 5545 5542 5538 5535 5532 5529 5526 5524 5521 5518 5514 5511 5508 5505 5502 5499 5497 5494 5491 5488 5485 5483 5480 5477 5475 5472 5469 5466 5463 5461 5457 5455 5452 5450 5447 5445 5442 5440 5437 5434 5431 5429 5426 5423 5421 5418 5416 5413 5410 5407 5404 5400 5397 5393 5390 5387 5384
5575 5573 5571 5568 5566 5563 5559 5556 5553 5550 5548 5546 5543 5540 5536 5533 5529 5526 5523 5520 5518 5515 5512 5508 5505 5502 5499 5496 5494 5491 5488 5485 5482 5480 5477 5474 5472 5469 5466 5463 5460 5457 5454 5452 5449 5446 5443 5441 5438 5435 5433 5430 5428 5424 5422 5419 5417 5414 5411 5408 5405 5402 5399 5395 5392 5389 5385 5382 5378
5572 5570 5568 5566 5563 5559 5556 5553 5549 5547 5544 5542 5540 5537 5533 5530 5527 5523 5520 5518 5515 5512 5509 5505 5502 5499 5496 5493 5490 5488 5485 5482 5479 5476 5473 5471 5469 5466 5463 5460 5457 5454 5451 5449 5446 5443 5440 5438 5435 5432 5429 5426 5424 5421 5418 5415 5413 5410 5407 5403 5400 5397 5394 5390 5387 5384 5381 5377 5373
5569 5567 5565 5563 5560 5558 5554 5550 5547 5544 5540 5538 5535 5532 5530 5527 5523 5520 5517 5514 5512 5508 5506 5502 5499 5496 5493 5490 5487 5484 5482 5479 5477 5474 5471 5468 5465 5463 5460 5457 5454 5451 5448 5446 5443 5440 5437 5434 5431 5429 5426 5423 5420 5417 5414 5411 5409 5405 5402 5399 5396 5392 5389 5385 5382 5379 5376 5372 5368
5566 5564 5562 5560 5558 5555 5552 5548 5545 5541 5537 5535 5531 5528 5526 5523 5520 5517 5513 5510 5507 5505 5503 5500 5496 5493 5490 5487 5484 5482 5478 5476 5473 5470 5468 5465 5463 5460 5457 5453 5451 5447 5445 5442 5440 5438 5434 5432 5428 5425 5423 5420 5418 5415 5412 5409 5405 5401 5398 5394 5392 5388 5384 5381 5377 5374 5370 5367 5363
5563 5561 5559 5557 5555 5552 5549 5545 5542 5538 5535 5532 5529 5526 5522 5519 5516 5512 5509 5507 5504 5502 5499 5497 5493 5490 5487 5485 5481 5478 5475 5473 5470 5468 5465 5462 5459 5457 5453 5451 5447 5444 5441 5439 5436 5434 5432 5429 5425 5423 5419 5417 5414 5411 5408 5405 5401 5397 5393 5389 5387 5383 5379 5376 5372 5368 5365 5361 5357
5561 5558 5556 5553 5551 5549 5546 5542 5539 5536 5532 5529 5526 5523 5520 5516 5512 5510 5506 5504 5501 5498 5496 5493 5490 5487 5484 5481 5478 5475 5472 5470 5467 5465 5462 5460 5457 5454 5451 5448 5444 5442 5439 5436 5433 5431 5428 5426 5423 5419 5416 5413 5411 5407 5404 5401 5397 5393 5389 5385 5382 5379 5375 5371 5367 5363 5359 5355 5352
5558 5556 5553 5551 5549 5546 5543 5540 5537 5533 5529 5526 5524 5521 5518 5514 5510 5506 5503 5500 5497 5495 5492 5490 5488 5485 5482 5479 5476 5473 5471 5467 5464 5462 5459 5457 5454 5451 5448 5446 5442 5439 5436 5433 5430 5427 5424 5422 5419 5416 5413 5409 5406 5403 5400 5396 5393 5389 5385 5381 5377 5374 5371 5367 5363 5359 5355 5351 5347
5555 5553 5551 5549 5546 5544 5541 5538 5535 5531 5528 5525 5521 5519 5516 5512 5508 5504 5501 5498 5495 5493 5490 5487 5485 5483 5480 5477 5475 5471 5469 5466 5462 5460 5457 5454 5452 5448 5445 5443 5440 5437 5434 5431 5427 5425 5421 5418 5415 5412 5409 5406 5403 5398 5396 5393 5389 5384 5380 5377 5373 5370 5366 5362 5359 5355 5350 5346 5343
5553 5550 5548 5546 5543 5541 5539 5536 5533 5530 5527 5523 5520 5517 5514 5511 5507 5503 5500 5496 5493 5490 5488 5485 5482 5480 5478 5475 5472 5470 5467 5464 5461 5457 5455 5452 5449 5446 5443 5440 5438 5435 5431 5429 5425 5422 5418 5414 5410 5407 5404 5402 5398 5395 5391 5388 5385 5381 5377 5372 5369 5365 5361 5358 5354 5350 5347 5342 5338
5552 5550 5547 5544 5541 5539 5536 5533 5531 5528 5525 5521 5518 5515 5513 5509 5506 5502 5499 5496 5491 5488 5486 5483 5481 5478 5475 5474 5471 5468 5466 5463 5460 5456 5453 5450 5447 5444 5441 5439 5436 5433 5429 5426 5423 5419 5415 5411 5407 5403 5400 5397 5394 5391 5388 5384 5381 5377 5373 5369 5365 5362 5358 5354 5350 5346 5342 5338 5335
5551 5548 5545 5543 5539 5537 5534 5531 5528 5525 5522 5519 5516 5513 5511 5509 5505 5501 5498 5493 5490 5487 5484 5482 5480 5477 5474 5472 5469 5467 5464 5461 5458 5455 5451 5448 5445 5442 5440 5437 5434 5431 5428 5424 5420 5417 5412 5408 5403 5400 5395 5392 5390 5388 5384 5381 5377 5373 5368 5365 5361 5357 5354 5350 5346 5342 5338 5334 5331
5550 5547 5544 5541 5538 5535 5533 5530 5527 5524 5521 5518 5515 5512 5510 5508 5504 5500 5496 5492 5489 5486 5483 5480 5478 5475 5472 5470 5468 5465 5462 5459 5456 5453 5449 5446 5443 5441 5437 5434 5432 5429 5425 5422 5418 5414 5409 5405 5400 5396 5392 5388 5386 5383 5380 5377 5373 5369 5365 5361 5357 5354 5350 5347 5343 5338 5334 5330 5326
5548 5546 5542 5539 5536 5533 5531 5528 5525 5522 5519 5516 5513 5511 5508 5506 5502 5499 5495 5491 5488 5484 5482 5478 5476 5473 5471 5469 5466 5463 5460 5457 5454 5450 5447 5444 5441 5438 5435 5432 5429 5427 5423 5419 5416 5411 5407 5402 5397 5393 5389 5386 5383 5379 5377 5373 5370 5366 5362 5358 5354 5350 5347 5343 5339 5335 5331 5326 5322
5547 5544 5541 5538 5535 5532 5530 5527 5524 5521 5518 5514 5511 5509 5506 5503 5500 5497 5493 5490 5487 5483 5480 5477 5473 5471 5469 5467 5464 5462 5458 5455 5451 5448 5445 5442 5438 5435 5432 5429 5426 5423 5420 5417 5413 5409 5404 5399 5395 5390 5386 5383 5379 5376 5373 5370 5367 5363 5359 5356 5352 5348 5344 5340 5335 5331 5327 5323 5319
5545 5542 5539 5537 5534 5531 5528 5526 5522 5519 5515 5512 5509 5507 5504 5501 5498 5495 5492 5488 5485 5482 5478 5475 5472 5469 5466 5464 5462 5460 5456 5453 5449 5445 5442 5439 5436 5432 5429 5426 5423 5420 5417 5413 5409 5406 5402 5398 5394 5389 5385 5381 5376 5373 5370 5367 5363 5360 5357 5353 5349 5345 5341 5337 5332 5327 5323 5319 5315
5543 5541 5538 5535 5533 5530 5527 5523 5521 5517 5514 5511 5508 5505 5502 5499 5496 5492 5490 5487 5483 5480 5477 5474 5471 5468 5464 5461 5459 5457 5454 5450 5447 5443 5440 5436 5433 5429 5426 5422 5420 5417 5414 5411 5407 5403 5399 5395 5391 5387 5383 5379 5375 5371 5367 5363 5360 5357 5354 5350 5346 5342 5338 5333 5328 5324 5319 5316 5312
5542 5539 5536 5534 5531 5528 5525 5522 5519 5516 5513 5509 5506 5503 5501 5498 5494 5491 5488 5486 5482 5479 5476 5473 5470 5467 5464 5460 5457 5455 5452 5449 5445 5441 5438 5435 5432 5429 5424 5421 5418 5415 5412 5408 5405 5401 5397 5393 5389 5385 5381 5377 5373 5369 5365 5362 5357 5354 5351 5347 5343 5338 5335 5329 5325 5320 5316 5312 5309
5541 5538 5535 5532 5530 5527 5524 5521 5518 5515 5512 5508 5505 5502 5500 5496 5494 5490 5487 5484 5481 5479 5475 5472 5468 5466 5463 5460 5457 5454 5451 5447 5444 5441 5437 5434 5430 5426 5423 5419 5416 5413 5410 5406 5403 5400 5396 5391 5387 5383 5378 5374 5371 5367 5363 5358 5354 5351 5347 5344 5339 5335 5331 5326 5321 5317 5313 5309 5306
5540 5537 5534 5532 5529 5525 5522 5520 5517 5514 5511 5508 5504 5501 5497 5495 5492 5489 5486 5482 5480 5477 5475 5472 5468 5464 5461 5459 5455 5452 5449 5446 5443 5439 5435 5432 5428 5425 5421 5417 5414 5410 5407 5404 5401 5397 5394 5390 5386 5381 5376 5372 5368 5364 5359 5355 5351 5347 5343 5340 5336 5332 5327 5323 5319 5314 5310 5307 5303
5540 5537 5534 5530 5527 5524 5521 5518 5515 5512 5509 5506 5503 5500 5497 5494 5490 5488 5485 5482 5479 5476 5473 5470 5466 5463 5459 5456 5453 5450 5447 5444 5441 5437 5434 5430 5426 5423 5419 5416 5412 5408 5405 5402 5398 5395 5391 5387 5383 5379 5374 5370 5365 5361 5357 5352 5348 5344 5339 5335 5332 5327 5324 5320 5315 5312 5307 5304 5300
5539 5536 5533 5530 5527 5523 5520 5517 5514 5510 5507 5504 5501 5498 5495 5492 5489 5487 5484 5481 5477 5474 5471 5468 5465 5462 5458 5455 5451 5448 5445 5441 5438 5435 5431 5427 5424 5421 5417 5414 5409 5405 5402 5398 5395 5392 5388 5385 5381 5376 5372 5367 5363 5358 5354 5350 5345 5340 5336 5331 5327 5323 5319 5315 5312 5308 5304 5300 5297
5538 5535 5532 5528 5525 5522 5518 5515 5512 5508 5505 5502 5499 5496 5493 5490 5487 5485 5482 5479 5475 5472 5469 5466 5463 5460 5457 5453 5450 5447 5443 5439 5435 5431 5429 5426 5422 5418 5415 5411 5407 5402 5399 5395 5392 5389 5385 5382 5378 5373 5369 5365 5361 5356 5351 5347 5342 5336 5332 5327 5322 5318 5315 5311 5308 5304 5300 5296 5293
5537 5533 5530 5527 5523 5520 5517 5513 5509 5506 5503 5500 5497 5493 5491 5488 5485 5482 5479 5475 5472 5468 5466 5463 5460 5458 5455 5451 5448 5444 5441 5436 5432 5428 5425 5422 5419 5415 5412 5407 5403 5400 5397 5394 5390 5387 5383 5379 5375 5370 5366 5362 5357 5353 5348 5344 5338 5333 5328 5323 5319 5314 5310 5307 5304 5300 5296 5293 5289
5535 5532 5528 5525 5521 5518 5514 5510 5507 5504 5501 5498 5495 5491 5488 5485 5482 5479 5475 5471 5469 5466 5463 5460 5457 5454 5451 5447 5444 5441 5437 5433 5429 5426 5422 5419 5415 5412 5409 5404 5401 5398 5394 5391 5388 5385 5381 5378 5373 5369 5364 5359 5354 5349 5344 5339 5335 5330 5325 5320 5315 5311 5306 5303 5299 5295 5292 5289 5286
5533 5530 5527 5523 5519 5516 5512 5509 5506 5502 5499 5496 5493 5488 5486 5483 5479 5476 5472 5468 5465 5463 5460 5456 5453 5450 5447 5443 5440 5436 5433 5430 5427 5423 5419 5416 5412 5409 5405 5402 5399 5396 5393 5389 5386 5382 5379 5376 5372 5367 5362 5357 5351 5345 5340 5335 5331 5326 5322 5318 5312 5308 5303 5299 5296 5293 5289 5286 5283
5531 5528 5525 5521 5517 5513 5510 5507 5503 5500 5496 5493 5489 5486 5483 5480 5476 5472 5469 5466 5463 5459 5457 5453 5450 5446 5443 5440 5436 5432 5429 5426 5423 5420 5416 5413 5410 5406 5403 5399 5396 5393 5391 5387 5384 5380 5377 5373 5369 5365 5359 5354 5348 5342 5337 5332 5327 5323 5320 5315 5310 5305 5300 5296 5293 5290 5286 5283 5280
5530 5526 5523 5519 5515 5511 5508 5505 5500 5497 5494 5490 5487 5484 5481 5477 5473 5470 5466 5463 5460 5456 5453 5449 5446 5443 5439 5436 5432 5429 5426 5423 5419 5417 5413 5410 5407 5404 5401 5398 5395 5392 5389 5386 5382 5378 5374 5370 5365 5361 5356 5350 5345 5340 5335 5331 5326 5322 5319 5314 5308 5303 5299 5294 5291 5288 5284 5280 5277
5528 5524 5520 5516 5512 5509 5505 5502 5498 5494 5491 5487 5484 5481 5477 5474 5470 5466 5463 5460 5456 5453 5449 5446 5443 5439 5435 5432 5429 5426 5423 5420 5417 5414 5410 5407 5404 5401 5399 5396 5393 5390 5388 5384 5380 5376 5371 5367 5362 5357 5353 5347 5342 5337 5333 5329 5326 5322 5318 5314 5309 5303 5298 5293 5289 5285 5282 5277 5274
5526 5522 5518 5513 5510 5506 5502 5499 5495 5492 5489 5485 5481 5477 5473 5470 5467 5463 5460 5457 5454 5450 5447 5444 5439 5436 5433 5430 5427 5424 5420 5417 5414 5411 5408 5405 5401 5399 5396 5394 5391 5388 5384 5381 5377 5373 5369 5364 5359 5355 5349 5345 5340 5336 5332 5328 5325 5321 5317 5312 5308 5302 5296 5291 5287 5283 5279 5275 5271
5523 5519 5516 5511 5507 5503 5500 5496 5493 5489 5485 5482 5478 5474 5471 5467 5464 5460 5457 5454 5451 5447 5443 5440 5437 5434 5432 5429 5425 5421 5418 5415 5412 5409 5406 5402 5399 5397 5395 5392 5389 5386 5382 5378 5374 5370 5366 5361 5356 5352 5348 5343 5339 5334 5330 5326 5322 5317 5312 5308 5304 5299 5295 5289 5285 5281 5276 5272 5268
5520 5516 5512 5508 5504 5501 5497 5493 5489 5485 5482 5478 5474 5471 5468 5464 5461 5458 5454 5451 5448 5443 5440 5437 5435 5432 5429 5426 5421 5418 5415 5413 5409 5407 5404 5401 5398 5395 5392 5389 5386 5383 5379 5376 5372 5368 5363 5359 5354 5350 5345 5341 5337 5333 5328 5323 5318 5312 5307 5303 5299 5296 5292 5288 5283 5279 5275 5270 5266
5518 5514 5509 5505 5501 5497 5493 5489 5485 5482 5478 5474 5471 5468 5464 5461 5457 5454 5451 5447 5445 5441 5439 5436 5434 5431 5426 5423 5418 5415 5411 5409 5407 5405 5402 5398 5396 5393 5390 5387 5383 5380 5377 5373 5368 5364 5360 5356 5352 5348 5343 5340 5335 5330 5325 5320 5315 5310 5305 5299 5296 5293 5289 5285 5281 5277 5273 5268 5265
5514 5510 5506 5502 5498 5494 5489 5486 5482 5478 5474 5470 5467 5464 5461 5457 5454 5450 5447 5445 5443 5441 5438 5435 5432 5428 5424 5420 5416 5413 5410 5407 5404 5402 5399 5396 5393 5390 5387 5383 5381 5378 5374 5370 5366 5361 5357 5353 5349 5345 5341 5336 5331 5326 5322 5317 5312 5307 5302 5297 5293 5290 5286 5283 5279 5275 5271 5268 5263
5512 5507 5503 5499 5494 5490 5486 5482 5478 5474 5471 5467 5463 5460 5458 5454 5451 5449 5446 5443 5441 5438 5435 5432 5429 5425 5421 5417 5413 5410 5407 5404 5401 5398 5396 5393 5390 5386 5383 5381 5379 5376 5372 5367 5363 5359 5355 5351 5347 5343 5338 5333 5328 5323 5318 5314 5309 5304 5300 5295 5290 5287 5283 5280 5276 5273 5269 5265 5260
5509 5504 5500 5495 5491 5486 5482 5478 5475 5471 5468 5465 5461 5457 5454 5452 5450 5447 5444 5440 5437 5435 5431 5429 5426 5421 5416 5413 5409 5407 5404 5402 5399 5396 5393 5390 5387 5383 5380 5378 5376 5373 5369 5365 5361 5357 5353 5350 5345 5340 5335 5329 5324 5320 5315 5311 5307 5303 5298 5293 5289 5285 5281 5277 5273 5269 5266 5262 5258
5506 5501 5497 5492 5487 5483 5479 5476 5472 5469 5465 5462 5459 5456 5453 5450 5447 5444 5440 5437 5434 5431 5428 5426 5422 5417 5413 5410 5407 5405 5402 5400 5396 5393 5390 5387 5384 5381 5378 5375 5373 5370 5367 5363 5359 5355 5351 5347 5343 5337 5332 5326 5321 5317 5312 5308 5304 5300 5295 5290 5285 5281 5277 5272 5269 5266 5262 5259 5256
5502 5499 5494 5489 5484 5480 5477 5473 5470 5466 5463 5459 5456 5454 5451 5448 5444 5440 5437 5434 5431 5428 5425 5421 5416 5413 5410 5407 5405 5402 5399 5397 5394 5390 5387 5384 5381 5378 5376 5373 5370 5367 5364 5360 5356 5353 5349 5344 5340 5335 5330 5325 5320 5315 5309 5304 5300 5294 5290 5285 5281 5276 5272 5267 5264 5261 5258 5255 5253
5499 5496 5491 5487 5482 5478 5475 5471 5468 5464 5461 5457 5454 5451 5448 5445 5441 5437 5434 5432 5429 5426 5421 5417 5412 5410 5407 5405 5401 5398 5396 5393 5391 5388 5384 5381 5378 5376 5373 5370 5367 5365 5361 5358 5354 5350 5346 5342 5337 5333 5328 5323 5317 5312 5306 5300 5295 5289 5285 5280 5276 5272 5267 5264 5260 5257 5255 5253 5251
5496 5492 5488 5484 5480 5476 5472 5469 5464 5461 5458 5454 5451 5448 5445 5442 5438 5434 5431 5429 5426 5422 5417 5413 5409 5407 5404 5401 5397 5394 5392 5390 5387 5384 5382 5378 5376 5373 5370 5367 5364 5362 5359 5356 5352 5348 5344 5339 5335 5330 5325 5319 5313 5307 5302 5297 5292 5286 5280 5276 5272 5269 5265 5261 5257 5254 5252 5251 5248
5492 5489 5485 5481 5477 5473 5469 5465 5461 5457 5454 5452 5448 5445 5442 5438 5434 5432 5428 5425 5422 5418 5414 5409 5406 5403 5400 5397 5393 5391 5388 5386 5384 5382 5379 5376 5373 5370 5367 5364 5362 5359 5356 5353 5350 5346 5341 5337 5332 5327 5321 5315 5308 5303 5298 5294 5288 5282 5277 5274 5270 5267 5263 5259 5256 5252 5250 5248 5246